When you browse on this site, cookies collect data to enhance your experience and personalize the content and advertising you see.
Visit our Privacy Policy to learn more. By continuing to use the site, you agree to this use of cookies and data.

Stündliche Wetter Rawson

Heute, 14 Juli, Dienstag

Zeit Temperatur Niederschläge Wind Luftdruck Luftfeuchtigkeit
00:00 -1°C° 0 mm 7 m/S 764 mmHg 62%
01:00 -1°C° 0 mm 6 m/S 764 mmHg 64%
02:00 -1°C° 0 mm 5 m/S 764 mmHg 66%
03:00 -1°C° 0 mm 5 m/S 764 mmHg 68%
04:00 -1°C° 0 mm 5 m/S 764 mmHg 69%
05:00 -1°C° 0 mm 4 m/S 764 mmHg 71%
06:00 -1°C° 0 mm 4 m/S 764 mmHg 72%
07:00 -1°C° 0 mm 4 m/S 764 mmHg 73%
08:00 -1°C° 0 mm 4 m/S 764 mmHg 74%
09:00 0°C° 0 mm 4 m/S 764 mmHg 68%
10:00 +3°C° 0 mm 3 m/S 764 mmHg 62%
11:00 +4°C° 0 mm 3 m/S 764 mmHg 56%
12:00 +6°C° 0 mm 2 m/S 764 mmHg 53%
13:00 +6°C° 0 mm 2 m/S 763 mmHg 50%
14:00 +8°C° 0 mm 1 m/S 763 mmHg 48%
15:00 +7°C° 0 mm 1 m/S 762 mmHg 51%
16:00 +6°C° 0 mm 1 m/S 762 mmHg 54%
17:00 +6°C° 0 mm 1 m/S 762 mmHg 57%
18:00 +5°C° 0 mm 1 m/S 762 mmHg 57%
19:00 +5°C° 0 mm 1 m/S 762 mmHg 58%
20:00 +4°C° 0 mm 2 m/S 762 mmHg 59%
21:00 +4°C° 0 mm 2 m/S 762 mmHg 60%
22:00 +3°C° 0 mm 3 m/S 762 mmHg 61%
23:00 +2°C° 0 mm 3 m/S 761 mmHg 63%

Morgen, 15 Juli, Mittwoch

Zeit Temperatur Niederschläge Wind Luftdruck Luftfeuchtigkeit
00:00 +2°C° 0 mm 3 m/S 761 mmHg 63%
01:00 +2°C° 0 mm 3 m/S 761 mmHg 64%
02:00 +1°C° 0 mm 3 m/S 761 mmHg 64%
03:00 +1°C° 0 mm 3 m/S 761 mmHg 63%
04:00 +1°C° 0 mm 3 m/S 760 mmHg 63%
05:00 +1°C° 0 mm 3 m/S 760 mmHg 62%
06:00 +1°C° 0 mm 3 m/S 760 mmHg 61%
07:00 +1°C° 0 mm 3 m/S 760 mmHg 61%
08:00 +1°C° 0 mm 3 m/S 760 mmHg 60%
09:00 +2°C° 0 mm 3 m/S 760 mmHg 56%
10:00 +4°C° 0 mm 3 m/S 761 mmHg 51%
11:00 +5°C° 0 mm 3 m/S 761 mmHg 47%
12:00 +5°C° 0 mm 4 m/S 761 mmHg 49%
13:00 +5°C° 0 mm 4 m/S 761 mmHg 50%
14:00 +6°C° 0 mm 4 m/S 760 mmHg 52%
15:00 +5°C° 0 mm 4 m/S 761 mmHg 58%
16:00 +5°C° 0 mm 5 m/S 761 mmHg 65%
17:00 +3°C° 0 mm 5 m/S 761 mmHg 72%
18:00 +3°C° 0 mm 5 m/S 762 mmHg 73%
19:00 +2°C° 0 mm 5 m/S 762 mmHg 74%
20:00 +2°C° 0 mm 5 m/S 762 mmHg 76%
21:00 +3°C° 0 mm 4 m/S 763 mmHg 77%
22:00 +3°C° 0 mm 3 m/S 763 mmHg 79%
23:00 +3°C° 0 mm 2 m/S 763 mmHg 80%

übermorgen, 16 Juli, Donnerstag

Zeit Temperatur Niederschläge Wind Luftdruck Luftfeuchtigkeit
00:00 +4°C° 0 mm 2 m/S 763 mmHg 80%
01:00 +4°C° 0 mm 2 m/S 763 mmHg 80%
02:00 +5°C° 0 mm 1 m/S 763 mmHg 80%
03:00 +5°C° 0 mm 1 m/S 763 mmHg 80%
04:00 +4°C° 0 mm 2 m/S 762 mmHg 80%
05:00 +4°C° 0 mm 2 m/S 762 mmHg 79%
06:00 +4°C° 0.1 mm 2 m/S 762 mmHg 82%
07:00 +4°C° 0.1 mm 2 m/S 763 mmHg 85%
08:00 +4°C° 0.1 mm 2 m/S 763 mmHg 88%
09:00 +4°C° 0.2 mm 3 m/S 763 mmHg 89%
10:00 +4°C° 0.2 mm 4 m/S 763 mmHg 90%
11:00 +4°C° 0.2 mm 4 m/S 763 mmHg 90%
12:00 +4°C° 0.2 mm 4 m/S 762 mmHg 90%
13:00 +5°C° 0.2 mm 5 m/S 762 mmHg 90%
14:00 +5°C° 0.2 mm 5 m/S 762 mmHg 90%
15:00 +5°C° 0.1 mm 5 m/S 762 mmHg 89%
16:00 +5°C° 0.1 mm 5 m/S 761 mmHg 88%
17:00 +5°C° 0.1 mm 5 m/S 761 mmHg 87%
18:00 +5°C° 0.1 mm 5 m/S 761 mmHg 88%
19:00 +5°C° 0.1 mm 5 m/S 761 mmHg 88%
20:00 +5°C° 0.1 mm 5 m/S 761 mmHg 89%
21:00 +5°C° 0.3 mm 6 m/S 761 mmHg 89%
22:00 +5°C° 0.3 mm 6 m/S 760 mmHg 89%
23:00 +5°C° 0.3 mm 7 m/S 760 mmHg 90%

17 Juli, Freitag

Zeit Temperatur Niederschläge Wind Luftdruck Luftfeuchtigkeit
00:00 +5°C° 0 mm 7 m/S 759 mmHg 89%
01:00 +5°C° 0 mm 7 m/S 759 mmHg 89%
02:00 +5°C° 0 mm 7 m/S 758 mmHg 89%
03:00 +5°C° 0 mm 8 m/S 758 mmHg 89%
04:00 +6°C° 0 mm 8 m/S 757 mmHg 89%
05:00 +6°C° 0 mm 8 m/S 756 mmHg 89%
06:00 +6°C° 0 mm 8 m/S 756 mmHg 89%
07:00 +6°C° 0 mm 8 m/S 755 mmHg 90%
08:00 +6°C° 0 mm 8 m/S 755 mmHg 90%
09:00 +7°C° 0 mm 8 m/S 754 mmHg 85%
10:00 +9°C° 0 mm 8 m/S 754 mmHg 79%
11:00 +10°C° 0 mm 8 m/S 754 mmHg 74%
12:00 +10°C° 0 mm 8 m/S 753 mmHg 73%
13:00 +10°C° 0 mm 8 m/S 752 mmHg 72%
14:00 +10°C° 0 mm 7 m/S 751 mmHg 71%
15:00 +10°C° 0.1 mm 7 m/S 751 mmHg 72%
16:00 +9°C° 0.1 mm 6 m/S 750 mmHg 73%
17:00 +9°C° 0.1 mm 5 m/S 750 mmHg 73%
18:00 +8°C° 0 mm 5 m/S 750 mmHg 75%
19:00 +8°C° 0 mm 5 m/S 750 mmHg 77%
20:00 +7°C° 0 mm 5 m/S 750 mmHg 79%
21:00 +7°C° 0 mm 5 m/S 750 mmHg 78%
22:00 +7°C° 0 mm 5 m/S 750 mmHg 78%
23:00 +7°C° 0 mm 5 m/S 750 mmHg 77%

18 Juli, Samstag

Zeit Temperatur Niederschläge Wind Luftdruck Luftfeuchtigkeit
00:00 +6°C° 0 mm 4 m/S 750 mmHg 78%
01:00 +6°C° 0 mm 4 m/S 751 mmHg 79%
02:00 +5°C° 0 mm 4 m/S 751 mmHg 80%
03:00 +5°C° 0 mm 4 m/S 751 mmHg 80%
04:00 +5°C° 0 mm 3 m/S 751 mmHg 79%
05:00 +5°C° 0 mm 3 m/S 751 mmHg 78%
06:00 +5°C° 0 mm 3 m/S 751 mmHg 77%
07:00 +5°C° 0 mm 3 m/S 751 mmHg 75%
08:00 +5°C° 0 mm 3 m/S 751 mmHg 74%
09:00 +7°C° 0 mm 3 m/S 751 mmHg 67%
10:00 +8°C° 0 mm 3 m/S 751 mmHg 61%
11:00 +10°C° 0 mm 3 m/S 752 mmHg 55%
12:00 +11°C° 0 mm 4 m/S 751 mmHg 52%
13:00 +12°C° 0 mm 4 m/S 751 mmHg 49%
14:00 +13°C° 0 mm 5 m/S 751 mmHg 46%
15:00 +12°C° 0 mm 4 m/S 752 mmHg 52%
16:00 +10°C° 0 mm 4 m/S 752 mmHg 58%
17:00 +9°C° 0 mm 3 m/S 752 mmHg 64%
18:00 +8°C° 0 mm 3 m/S 753 mmHg 70%
19:00 +7°C° 0 mm 4 m/S 754 mmHg 76%
20:00 +6°C° 0 mm 4 m/S 754 mmHg 82%
21:00 +6°C° 0 mm 4 m/S 755 mmHg 82%
22:00 +5°C° 0 mm 4 m/S 755 mmHg 82%
23:00 +5°C° 0 mm 4 m/S 755 mmHg 82%

19 Juli, Sonntag

Zeit Temperatur Niederschläge Wind Luftdruck Luftfeuchtigkeit
00:00 +5°C° 0 mm 4 m/S 756 mmHg 83%
01:00 +4°C° 0 mm 3 m/S 756 mmHg 83%
02:00 +4°C° 0 mm 3 m/S 757 mmHg 83%
03:00 +4°C° 0 mm 3 m/S 757 mmHg 83%
04:00 +4°C° 0 mm 3 m/S 757 mmHg 82%
05:00 +4°C° 0 mm 3 m/S 757 mmHg 82%
06:00 +4°C° 0 mm 3 m/S 758 mmHg 82%
07:00 +4°C° 0 mm 3 m/S 758 mmHg 83%
08:00 +4°C° 0 mm 3 m/S 759 mmHg 84%
09:00 +4°C° 0 mm 3 m/S 759 mmHg 80%
10:00 +5°C° 0 mm 3 m/S 759 mmHg 76%
11:00 +7°C° 0 mm 3 m/S 760 mmHg 71%
12:00 +8°C° 0 mm 3 m/S 759 mmHg 70%
13:00 +7°C° 0 mm 4 m/S 759 mmHg 69%
14:00 +7°C° 0 mm 4 m/S 759 mmHg 68%
15:00 +7°C° 0 mm 4 m/S 759 mmHg 72%
16:00 +7°C° 0 mm 4 m/S 759 mmHg 75%
17:00 +6°C° 0 mm 4 m/S 759 mmHg 78%
18:00 +6°C° 0 mm 4 m/S 760 mmHg 79%
19:00 +7°C° 0 mm 3 m/S 760 mmHg 80%
20:00 +7°C° 0 mm 3 m/S 760 mmHg 82%
21:00 +7°C° 0.1 mm 3 m/S 761 mmHg 82%
22:00 +7°C° 0.1 mm 3 m/S 761 mmHg 82%
23:00 +7°C° 0.1 mm 3 m/S 761 mmHg 82%
Mehr zeigen